| time (UTC) | temp F | wind direction | speed MPH | gust MPH | rain 1hr in | rain 24hr in | rain mn in | humidity % | barometer mb |
| 20260504130522 | 57 | 220 | 2.0 | 3.0 | 0.00 | 0.00 | 0.00 | 67 | 1009.4 |
| 20260504110410 | 46 | 143 | 2.0 | 2.0 | 0.00 | 0.00 | 0.00 | 85 | 1009.0 |
| 20260504100326 | 42 | 347 | 1.0 | 1.0 | 0.00 | 0.00 | 0.00 | 97 | 1009.3 |
| 20260504081720 | 44 | 85 | 1.0 | 1.0 | 0.00 | 0.00 | 0.00 | 97 | 1009.5 |
| 20260504081216 | 44 | 77 | 0.0 | 1.0 | 0.00 | 0.00 | 0.00 | 97 | 1009.7 |
| 20260504080712 | 45 | 98 | 0.0 | 0.0 | 0.00 | 0.00 | 0.00 | 97 | 1009.6 |
| 20260504080209 | 45 | 100 | 1.0 | 1.0 | 0.00 | 0.00 | 0.00 | 97 | 1010.0 |
| 20260504070137 | 47 | 94 | 1.0 | 2.0 | 0.00 | 0.00 | 0.00 | 93 | 1010.4 |
| 20260504050525 | 50 | 78 | 0.0 | 0.0 | 0.00 | 0.00 | 0.00 | 86 | 1011.0 |
| 20260504050022 | 50 | 5 | 0.0 | 0.0 | 0.00 | 0.00 | 0.00 | 86 | 1011.2 |
| 20260504045519 | 50 | 4 | 0.0 | 0.0 | 0.00 | 0.00 | 0.00 | 85 | 1011.1 |
| 20260504045015 | 50 | 3 | 0.0 | 0.0 | 0.00 | 0.00 | 0.00 | 85 | 1011.4 |
| 20260504044512 | 50 | 4 | 1.0 | 1.0 | 0.00 | 0.00 | 0.00 | 84 | 1011.1 |
| 20260504044009 | 49 | 268 | 0.0 | 0.0 | 0.00 | 0.00 | 0.00 | 84 | 1011.4 |
| 20260504043506 | 50 | 297 | 1.0 | 1.0 | 0.00 | 0.00 | 0.00 | 85 | 1011.5 |
| 20260504043004 | 50 | 314 | 1.0 | 1.0 | 0.00 | 0.00 | 0.00 | 84 | 1011.5 |
| 20260504042501 | 50 | 301 | 0.0 | 0.0 | 0.00 | 0.00 | 0.00 | 83 | 1011.4 |
| 20260504041957 | 50 | 219 | 0.0 | 0.0 | 0.00 | 0.00 | 0.00 | 84 | 1011.4 |
| 20260504041453 | 50 | 183 | 1.0 | 1.0 | 0.00 | 0.00 | 0.00 | 84 | 1011.6 |
| 20260504040949 | 50 | 142 | 2.0 | 2.0 | 0.00 | 0.00 | 0.00 | 83 | 1011.4 |
| 20260504040447 | 50 | 169 | 1.0 | 1.0 | 0.00 | 0.00 | 0.00 | 81 | 1011.5 |
| 20260504035943 | 50 | 209 | 1.0 | 1.0 | 0.00 | 0.00 | 0.00 | 81 | 1011.7 |
| 20260504035441 | 50 | 105 | 1.0 | 1.0 | 0.00 | 0.00 | 0.00 | 81 | 1011.3 |
| 20260504034937 | 50 | 194 | 1.0 | 1.0 | 0.00 | 0.00 | 0.00 | 77 | 1011.5 |
| 20260504034435 | 50 | 93 | 1.0 | 1.0 | 0.00 | 0.00 | 0.00 | 75 | 1011.5 |
| 20260504033932 | 50 | 101 | 1.0 | 1.0 | 0.00 | 0.00 | 0.00 | 75 | 1011.3 |
| 20260504033429 | 50 | 5 | 0.0 | 0.0 | 0.00 | 0.00 | 0.00 | 77 | 1011.4 |
| 20260504032926 | 50 | 340 | 1.0 | 1.0 | 0.00 | 0.00 | 0.00 | 77 | 1011.4 |
| 20260504032423 | 50 | 96 | 1.0 | 1.0 | 0.00 | 0.00 | 0.00 | 76 | 1011.6 |
| 20260504031920 | 50 | 262 | 0.0 | 0.0 | 0.00 | 0.00 | 0.00 | 75 | 1011.2 |
| 20260504031417 | 50 | 300 | 2.0 | 2.0 | 0.00 | 0.00 | 0.00 | 74 | 1011.8 |
| 20260504030914 | 50 | 265 | 0.0 | 0.0 | 0.00 | 0.00 | 0.00 | 73 | 1011.4 |
| 20260504030411 | 50 | 262 | 0.0 | 0.0 | 0.00 | 0.00 | 0.00 | 73 | 1011.2 |
| 20260504025906 | 50 | 284 | 0.0 | 0.0 | 0.00 | 0.00 | 0.00 | 74 | 1011.3 |
| 20260504025403 | 50 | 287 | 0.0 | 0.0 | 0.00 | 0.00 | 0.00 | 74 | 1011.3 |
| 20260504024900 | 50 | 173 | 1.0 | 1.0 | 0.00 | 0.00 | 0.00 | 72 | 1011.2 |
| 20260504024356 | 50 | 325 | 1.0 | 1.0 | 0.00 | 0.00 | 0.00 | 72 | 1011.5 |
| 20260504023854 | 50 | 193 | 0.0 | 1.0 | 0.00 | 0.00 | 0.00 | 72 | 1011.4 |
| 20260504023350 | 50 | 201 | 0.0 | 1.0 | 0.00 | 0.00 | 0.00 | 72 | 1011.5 |
| 20260504022845 | 50 | 185 | 1.0 | 1.0 | 0.00 | 0.00 | 0.00 | 72 | 1011.3 |
| 20260504022343 | 50 | 335 | 1.0 | 1.0 | 0.00 | 0.00 | 0.00 | 71 | 1011.4 |
| 20260504021839 | 50 | 146 | 1.0 | 2.0 | 0.00 | 0.00 | 0.00 | 69 | 1011.2 |
| 20260504021337 | 51 | 170 | 0.0 | 0.0 | 0.00 | 0.00 | 0.00 | 70 | 1011.0 |
| 20260504020834 | 51 | 171 | 0.0 | 0.0 | 0.00 | 0.00 | 0.00 | 68 | 1011.2 |
| 20260504020330 | 51 | 170 | 0.0 | 0.0 | 0.00 | 0.00 | 0.00 | 67 | 1010.8 |
| 20260504015826 | 51 | 167 | 0.0 | 1.0 | 0.00 | 0.00 | 0.00 | 67 | 1010.9 |
| 20260504015323 | 51 | 173 | 1.0 | 1.0 | 0.00 | 0.00 | 0.00 | 67 | 1010.9 |
| 20260504014819 | 50 | 187 | 0.0 | 0.0 | 0.00 | 0.00 | 0.00 | 68 | 1010.9 |
| 20260504014315 | 51 | 188 | 0.0 | 0.0 | 0.00 | 0.00 | 0.00 | 68 | 1010.9 |
| 20260504013813 | 51 | 188 | 0.0 | 1.0 | 0.00 | 0.00 | 0.00 | 67 | 1010.7 |
| 20260504013311 | 51 | 189 | 0.0 | 0.0 | 0.00 | 0.00 | 0.00 | 66 | 1010.9 |
| 20260504012807 | 51 | 176 | 1.0 | 1.0 | 0.00 | 0.00 | 0.00 | 63 | 1010.9 |
| 20260504012305 | 51 | 131 | 1.0 | 1.0 | 0.00 | 0.00 | 0.00 | 64 | 1010.9 |
| 20260504011803 | 52 | 139 | 0.0 | 0.0 | 0.00 | 0.00 | 0.00 | 64 | 1010.8 |
| 20260504011259 | 52 | 178 | 1.0 | 2.0 | 0.00 | 0.00 | 0.00 | 62 | 1010.6 |
| 20260504010754 | 52 | 163 | 0.0 | 0.0 | 0.00 | 0.00 | 0.00 | 62 | 1010.9 |
| 20260504010250 | 53 | 155 | 2.0 | 2.0 | 0.00 | 0.00 | 0.00 | 65 | 1010.9 |
| 20260504005747 | 53 | 157 | 1.0 | 1.0 | 0.00 | 0.00 | 0.00 | 60 | 1010.9 |
| 20260504005244 | 53 | 172 | 0.0 | 1.0 | 0.00 | 0.00 | 0.00 | 57 | 1010.8 |
| 20260504004742 | 52 | 181 | 0.0 | 0.0 | 0.00 | 0.00 | 0.00 | 57 | 1010.7 |
| 20260504004239 | 52 | 187 | 0.0 | 0.0 | 0.00 | 0.00 | 0.00 | 59 | 1011.0 |
| 20260504003735 | 53 | 186 | 0.0 | 0.0 | 0.00 | 0.00 | 0.00 | 57 | 1011.1 |
| 20260504003232 | 53 | 187 | 0.0 | 0.0 | 0.00 | 0.00 | 0.00 | 59 | 1010.8 |
| 20260504002729 | 54 | 186 | 0.0 | 0.0 | 0.00 | 0.00 | 0.00 | 57 | 1010.8 |
| 20260504002226 | 55 | 186 | 1.0 | 1.0 | 0.00 | 0.00 | 0.00 | 56 | 1010.6 |
| 20260504001724 | 55 | 153 | 1.0 | 1.0 | 0.00 | 0.00 | 0.00 | 55 | 1010.7 |
| 20260504001220 | 55 | 146 | 2.0 | 2.0 | 0.00 | 0.00 | 0.00 | 53 | 1010.8 |
| 20260504000717 | 56 | 168 | 1.0 | 2.0 | 0.00 | 0.00 | 0.00 | 52 | 1010.9 |
| 20260504000214 | 57 | 168 | 1.0 | 1.0 | 0.00 | 0.00 | 0.00 | 50 | 1011.0 |
| 20260503235713 | 58 | 162 | 1.0 | 1.0 | 0.00 | 0.00 | 0.00 | 47 | 1010.7 |
| 20260503235209 | 59 | 212 | 1.0 | 2.0 | 0.00 | 0.00 | 0.00 | 42 | 1010.8 |
| 20260503234707 | 60 | 229 | 1.0 | 1.0 | 0.00 | 0.00 | 0.00 | 42 | 1010.7 |
| 20260503234205 | 60 | 210 | 1.0 | 1.0 | 0.00 | 0.00 | 0.00 | 41 | 1010.7 |
| 20260503233701 | 60 | 225 | 2.0 | 3.0 | 0.00 | 0.00 | 0.00 | 39 | 1010.5 |
| 20260503233157 | 60 | 215 | 1.0 | 2.0 | 0.00 | 0.00 | 0.00 | 41 | 1010.7 |
| 20260503232654 | 60 | 259 | 0.0 | 1.0 | 0.00 | 0.00 | 0.00 | 42 | 1010.7 |
| 20260503232151 | 60 | 211 | 1.0 | 1.0 | 0.00 | 0.00 | 0.00 | 39 | 1010.9 |
| 20260503231650 | 61 | 249 | 2.0 | 2.0 | 0.00 | 0.00 | 0.00 | 39 | 1011.1 |
| 20260503231146 | 61 | 196 | 1.0 | 1.0 | 0.00 | 0.00 | 0.00 | 39 | 1011.2 |
| 20260503230642 | 61 | 256 | 2.0 | 3.0 | 0.00 | 0.00 | 0.00 | 38 | 1011.0 |
| 20260503230140 | 61 | 256 | 5.0 | 6.0 | 0.00 | 0.00 | 0.00 | 38 | 1011.2 |
| 20260503225637 | 62 | 301 | 3.0 | 3.0 | 0.00 | 0.00 | 0.00 | 37 | 1011.3 |
| 20260503225136 | 62 | 230 | 4.0 | 5.0 | 0.00 | 0.00 | 0.00 | 38 | 1011.2 |
| 20260503224634 | 63 | 238 | 6.0 | 8.0 | 0.00 | 0.00 | 0.00 | 36 | 1011.1 |
| 20260503224132 | 63 | 250 | 4.0 | 6.0 | 0.00 | 0.00 | 0.00 | 37 | 1011.4 |
| 20260503223630 | 63 | 258 | 3.0 | 3.0 | 0.00 | 0.00 | 0.00 | 36 | 1011.4 |
| 20260503223126 | 63 | 270 | 4.0 | 6.0 | 0.00 | 0.00 | 0.00 | 36 | 1011.5 |
| 20260503222623 | 63 | 255 | 2.0 | 2.0 | 0.00 | 0.00 | 0.00 | 38 | 1011.5 |
| 20260503222121 | 62 | 286 | 3.0 | 3.0 | 0.00 | 0.00 | 0.00 | 36 | 1011.4 |
| 20260503221619 | 63 | 289 | 3.0 | 3.0 | 0.00 | 0.00 | 0.00 | 36 | 1011.3 |
| 20260503221116 | 64 | 267 | 7.0 | 11.0 | 0.00 | 0.00 | 0.00 | 36 | 1011.5 |
| 20260503220613 | 64 | 242 | 3.0 | 5.0 | 0.00 | 0.00 | 0.00 | 38 | 1011.6 |
| 20260503220110 | 63 | 270 | 3.0 | 5.0 | 0.00 | 0.00 | 0.00 | 38 | 1011.4 |
| 20260503215607 | 64 | 241 | 6.0 | 7.0 | 0.00 | 0.00 | 0.00 | 36 | 1011.5 |
| 20260503215103 | 64 | 241 | 3.0 | 3.0 | 0.00 | 0.00 | 0.00 | 37 | 1011.4 |
| 20260503214602 | 64 | 297 | 3.0 | 3.0 | 0.00 | 0.00 | 0.00 | 38 | 1011.5 |
| 20260503214058 | 64 | 280 | 6.0 | 7.0 | 0.00 | 0.00 | 0.00 | 36 | 1011.6 |
| 20260503213557 | 64 | 300 | 0.0 | 1.0 | 0.00 | 0.00 | 0.00 | 38 | 1011.6 |
| 20260503213053 | 64 | 307 | 3.0 | 5.0 | 0.00 | 0.00 | 0.00 | 37 | 1011.8 |
| 20260503212550 | 64 | 246 | 10.0 | 13.0 | 0.00 | 0.00 | 0.00 | 34 | 1011.8 |
| 20260503212047 | 63 | 303 | 0.0 | 0.0 | 0.00 | 0.00 | 0.00 | 38 | 1011.6 |
| 20260503211545 | 63 | 248 | 6.0 | 8.0 | 0.00 | 0.00 | 0.00 | 36 | 1011.6 |
| 20260503211040 | 63 | 256 | 5.0 | 6.0 | 0.00 | 0.00 | 0.00 | 35 | 1011.7 |
| 20260503210537 | 63 | 268 | 4.0 | 7.0 | 0.00 | 0.00 | 0.00 | 38 | 1011.7 |
| 20260503210033 | 62 | 239 | 3.0 | 3.0 | 0.00 | 0.00 | 0.00 | 39 | 1011.9 |
| 20260503205530 | 63 | 295 | 3.0 | 3.0 | 0.00 | 0.00 | 0.00 | 38 | 1011.7 |
| 20260503205026 | 63 | 290 | 5.0 | 6.0 | 0.00 | 0.00 | 0.00 | 40 | 1011.9 |
| 20260503204523 | 63 | 268 | 1.0 | 1.0 | 0.00 | 0.00 | 0.00 | 34 | 1011.9 |
| 20260503204020 | 63 | 241 | 3.0 | 3.0 | 0.00 | 0.00 | 0.00 | 39 | 1012.2 |
| 20260503203517 | 64 | 265 | 5.0 | 6.0 | 0.00 | 0.00 | 0.00 | 39 | 1012.1 |
| 20260503203014 | 64 | 323 | 3.0 | 3.0 | 0.00 | 0.00 | 0.00 | 39 | 1012.3 |
| 20260503202512 | 63 | 167 | 1.0 | 3.0 | 0.00 | 0.00 | 0.00 | 42 | 1012.1 |
| 20260503202010 | 63 | 299 | 2.0 | 2.0 | 0.00 | 0.00 | 0.00 | 39 | 1012.3 |
| 20260503201508 | 62 | 300 | 2.0 | 2.0 | 0.00 | 0.00 | 0.00 | 38 | 1012.5 |
| 20260503201005 | 62 | 265 | 4.0 | 6.0 | 0.00 | 0.00 | 0.00 | 40 | 1012.5 |
| 20260503200501 | 63 | 264 | 6.0 | 8.0 | 0.00 | 0.00 | 0.00 | 38 | 1012.7 |
| 20260503195957 | 62 | 282 | 3.0 | 5.0 | 0.00 | 0.00 | 0.00 | 40 | 1012.5 |
| 20260503195455 | 62 | 324 | 3.0 | 5.0 | 0.00 | 0.00 | 0.00 | 39 | 1012.8 |
| 20260503194951 | 62 | 305 | 4.0 | 6.0 | 0.00 | 0.00 | 0.00 | 40 | 1012.8 |
| 20260503194449 | 61 | 324 | 3.0 | 3.0 | 0.00 | 0.00 | 0.00 | 37 | 1012.9 |
| 20260503193944 | 62 | 292 | 3.0 | 5.0 | 0.00 | 0.00 | 0.00 | 36 | 1013.1 |
| 20260503193439 | 61 | 280 | 4.0 | 5.0 | 0.00 | 0.00 | 0.00 | 40 | 1013.3 |
| 20260503192935 | 62 | 253 | 7.0 | 8.0 | 0.00 | 0.00 | 0.00 | 38 | 1013.4 |
| 20260503192432 | 61 | 202 | 4.0 | 6.0 | 0.00 | 0.00 | 0.00 | 42 | 1013.4 |
| 20260503191927 | 62 | 187 | 8.0 | 10.0 | 0.00 | 0.00 | 0.00 | 37 | 1013.3 |
| 20260503191425 | 60 | 5 | 1.0 | 2.0 | 0.00 | 0.00 | 0.00 | 41 | 1013.4 |
| 20260503190921 | 61 | 244 | 4.0 | 6.0 | 0.00 | 0.00 | 0.00 | 38 | 1013.7 |
| 20260503190419 | 61 | 227 | 6.0 | 8.0 | 0.00 | 0.00 | 0.00 | 40 | 1013.9 |
| 20260503185915 | 61 | 272 | 7.0 | 8.0 | 0.00 | 0.00 | 0.00 | 42 | 1013.9 |
| 20260503185413 | 61 | 256 | 4.0 | 5.0 | 0.00 | 0.00 | 0.00 | 38 | 1013.9 |
| 20260503184911 | 60 | 273 | 2.0 | 3.0 | 0.00 | 0.00 | 0.00 | 42 | 1014.0 |
| 20260503184408 | 61 | 334 | 4.0 | 5.0 | 0.00 | 0.00 | 0.00 | 40 | 1014.0 |
| 20260503183904 | 60 | 244 | 1.0 | 1.0 | 0.00 | 0.00 | 0.00 | 43 | 1014.4 |
| 20260503183401 | 60 | 240 | 6.0 | 8.0 | 0.00 | 0.00 | 0.00 | 41 | 1014.4 |
| 20260503182858 | 60 | 266 | 5.0 | 6.0 | 0.00 | 0.00 | 0.00 | 41 | 1014.4 |
| 20260503182357 | 60 | 282 | 4.0 | 6.0 | 0.00 | 0.00 | 0.00 | 45 | 1014.6 |
| 20260503181854 | 59 | 343 | 3.0 | 3.0 | 0.00 | 0.00 | 0.00 | 48 | 1014.5 |
| 20260503181351 | 59 | 263 | 4.0 | 5.0 | 0.00 | 0.00 | 0.00 | 43 | 1014.7 |
| 20260503180847 | 59 | 269 | 1.0 | 2.0 | 0.00 | 0.00 | 0.00 | 41 | 1014.7 |
| 20260503180345 | 59 | 224 | 5.0 | 6.0 | 0.00 | 0.00 | 0.00 | 40 | 1015.0 |
| 20260503175841 | 59 | 247 | 3.0 | 3.0 | 0.00 | 0.00 | 0.00 | 45 | 1014.8 |
| 20260503175340 | 59 | 230 | 2.0 | 3.0 | 0.00 | 0.00 | 0.00 | 41 | 1015.1 |
| 20260503174835 | 59 | 300 | 7.0 | 9.0 | 0.00 | 0.00 | 0.00 | 41 | 1015.0 |
| 20260503174334 | 59 | 255 | 3.0 | 3.0 | 0.00 | 0.00 | 0.00 | 42 | 1014.9 |
| 20260503173829 | 58 | 286 | 7.0 | 9.0 | 0.00 | 0.00 | 0.00 | 43 | 1015.1 |
| 20260503173325 | 57 | 301 | 4.0 | 5.0 | 0.00 | 0.00 | 0.00 | 42 | 1015.1 |
| 20260503172822 | 56 | 350 | 2.0 | 2.0 | 0.00 | 0.00 | 0.00 | 46 | 1015.2 |
| 20260503172320 | 57 | 336 | 3.0 | 5.0 | 0.00 | 0.00 | 0.00 | 42 | 1015.5 |
| 20260503171816 | 57 | 268 | 4.0 | 6.0 | 0.00 | 0.00 | 0.00 | 42 | 1015.5 |
| 20260503171313 | 58 | 153 | 3.0 | 5.0 | 0.00 | 0.00 | 0.00 | 42 | 1015.4 |
| 20260503170810 | 58 | 209 | 4.0 | 6.0 | 0.00 | 0.00 | 0.00 | 42 | 1015.6 |
| 20260503170306 | 56 | 297 | 3.0 | 3.0 | 0.00 | 0.00 | 0.00 | 45 | 1015.6 |
| 20260503150658 | 53 | 292 | 3.0 | 5.0 | 0.00 | 0.00 | 0.00 | 46 | 1016.8 |
| 20260503150155 | 53 | 252 | 7.0 | 8.0 | 0.00 | 0.00 | 0.00 | 50 | 1016.8 |
| 20260503140119 | 49 | 243 | 4.0 | 5.0 | 0.00 | 0.00 | 0.00 | 61 | 1016.9 |